START_TIME,STEP,MOV.,H8,t_acc.,H43,t_acc.,M25,t_acc.,H9,t_acc.
1979-07-21 12:00:29.200 ,0,0,0.,12.0,0.,12.0,0.,12.0,0.,12.0
1979-07-21 12:00:41.200 ,0,0,0.,12.0,0.,12.0,0.,12.0,0.,12.0
1979-07-21 12:00:53.200 ,1,0,0.,12.0,0.,12.0,0.,12.0,0.,12.0
1979-07-21 12:01:05.200 ,1,0,0.,12.0,0.,12.0,0.,12.0,0.,12.0
1979-07-21 12:01:17.200 ,1,0,0.,12.0,0.,12.0,0.,12.0,0.,12.0
1979-07-21 12:01:29.200 ,1,0,0.,12.0,0.,12.0,0.,12.0,0.,12.0
1979-07-21 12:01:41.200 ,2,0,0.,12.0,0.,12.0,0.,12.0,0.,12.0
1979-07-21 12:01:53.200 ,2,0,0.,12.0,0.,12.0,0.,12.0,0.,12.0
1979-07-21 12:02:05.200 ,2,0,0.,12.0,0.,12.0,0.,12.0,0.,12.0
1979-07-21 12:02:17.200 ,2,0,0.,12.0,0.,12.0,0.,12.0,0.,12.0
1979-07-21 12:02:29.200 ,3,0,0.,12.0,0.,12.0,0.,12.0,0.,12.0
1979-07-21 12:02:41.200 ,3,0,0.,12.0,0.,12.0,0.,12.0,0.,12.0
1979-07-21 12:02:53.200 ,3,0,0.,12.0,0.,12.0,0.,12.0,0.,12.0
1979-07-21 12:03:05.200 ,3,0,0.,12.0,0.,12.0,0.,12.0,0.,12.0
1979-07-21 12:03:17.200 ,4,0,0.,12.0,0.,12.0,0.,12.0,0.,12.0
1979-07-21 12:03:29.200 ,4,0,0.,12.0,0.,12.0,0.,12.0,0.,12.0
1979-07-21 12:03:41.200 ,4,0,0.,12.0,0.,12.0,0.,12.0,0.,12.0
1979-07-21 12:03:53.200 ,4,0,0.,12.0,0.,12.0,0.,12.0,0.,12.0
1979-07-21 12:04:05.200 ,5,0,0.,12.0,0.,12.0,0.,12.0,0.,12.0
1979-07-21 12:04:17.200 ,5,0,0.,12.0,0.,12.0,0.,12.0,0.,12.0
1979-07-21 12:04:29.200 ,5,0,0.,12.0,0.,12.0,0.,12.0,0.,12.0
1979-07-21 12:04:41.200 ,5,0,0.,12.0,0.,12.0,0.,12.0,0.,12.0
1979-07-21 12:04:53.200 ,6,0,0.,12.0,0.,12.0,0.,12.0,0.,12.0
1979-07-21 12:05:05.200 ,6,0,0.,12.0,0.,12.0,0.,12.0,0.,12.0
1979-07-21 12:05:17.200 ,6,0,0.,12.0,0.,12.0,0.,12.0,0.,12.0
1979-07-21 12:05:29.200 ,6,0,1.,12.0,0.,12.0,0.,12.0,0.,12.0
1979-07-21 12:05:41.200 ,7,0,0.,12.0,0.,12.0,0.,12.0,0.,12.0
1979-07-21 12:05:53.200 ,7,0,0.,12.0,0.,12.0,0.,12.0,0.,12.0
1979-07-21 12:06:05.200 ,7,0,0.,12.0,0.,12.0,0.,12.0,0.,12.0
1979-07-21 12:06:17.200 ,7,0,0.,12.0,0.,12.0,0.,12.0,0.,12.0
1979-07-21 12:06:29.200 ,7,0,0.,12.0,0.,12.0,0.,12.0,0.,12.0
1979-07-21 12:06:41.200 ,7,0,0.,12.0,0.,12.0,0.,12.0,0.,12.0
1979-07-21 12:06:53.200 ,7,0,0.,12.0,0.,12.0,0.,12.0,0.,12.0
1979-07-21 12:07:05.200 ,7,0,0.,12.0,0.,12.0,0.,12.0,0.,12.0
1979-07-21 12:07:17.200 ,6,0,0.,12.0,0.,12.0,0.,12.0,0.,12.0
1979-07-21 12:07:29.200 ,6,0,0.,12.0,0.,12.0,0.,12.0,0.,12.0
1979-07-21 12:07:41.200 ,6,0,0.,12.0,0.,12.0,0.,12.0,0.,12.0
1979-07-21 12:07:53.200 ,6,0,0.,12.0,0.,12.0,0.,12.0,0.,12.0
1979-07-21 12:08:05.200 ,5,0,0.,12.0,0.,12.0,0.,12.0,0.,12.0
1979-07-21 12:08:17.200 ,5,0,0.,12.0,0.,12.0,0.,12.0,0.,12.0
1979-07-21 12:08:29.200 ,5,0,0.,12.0,0.,12.0,0.,12.0,0.,12.0
1979-07-21 12:08:41.200 ,5,0,0.,12.0,0.,12.0,0.,12.0,0.,12.0
1979-07-21 12:08:53.200 ,4,0,0.,12.0,0.,12.0,0.,12.0,0.,12.0
1979-07-21 12:09:05.200 ,4,0,0.,12.0,0.,12.0,0.,12.0,0.,12.0
1979-07-21 12:09:17.200 ,4,0,0.,12.0,0.,12.0,0.,12.0,0.,12.0
1979-07-21 12:09:29.200 ,4,0,0.,12.0,0.,12.0,0.,12.0,0.,12.0
1979-07-21 12:09:41.200 ,3,0,0.,12.0,0.,12.0,0.,12.0,0.,12.0
1979-07-21 12:09:53.200 ,3,0,0.,12.0,0.,12.0,0.,12.0,0.,12.0
1979-07-21 12:10:05.200 ,3,0,0.,12.0,0.,12.0,0.,12.0,0.,12.0
1979-07-21 12:10:17.200 ,3,0,0.,12.0,0.,12.0,0.,12.0,0.,12.0
1979-07-21 12:10:29.200 ,2,0,0.,12.0,0.,12.0,0.,12.0,0.,12.0
1979-07-21 12:10:41.200 ,2,0,0.,12.0,0.,12.0,0.,12.0,0.,12.0
1979-07-21 12:10:53.200 ,2,0,0.,12.0,0.,12.0,0.,12.0,0.,12.0
1979-07-21 12:11:05.200 ,2,0,0.,12.0,0.,12.0,0.,12.0,0.,12.0
1979-07-21 12:11:17.200 ,1,0,0.,12.0,0.,12.0,0.,12.0,0.,12.0
1979-07-21 12:11:29.200 ,1,0,0.,12.0,0.,12.0,0.,12.0,0.,12.0
1979-07-21 12:11:41.200 ,1,0,0.,12.0,0.,12.0,0.,12.0,0.,12.0
1979-07-21 12:11:53.200 ,1,0,0.,12.0,0.,12.0,0.,12.0,0.,12.0
1979-07-21 12:12:05.200 ,0,0,0.,12.0,0.,12.0,0.,12.0,0.,12.0
1979-07-21 12:12:17.200 ,0,0,0.,12.0,0.,12.0,0.,12.0,0.,12.0
1979-07-21 12:12:29.200 ,0,0,0.,12.0,0.,12.0,0.,12.0,0.,12.0
1979-07-21 12:12:41.200 ,0,0,0.,12.0,0.,12.0,0.,12.0,0.,12.0
1979-07-21 12:12:53.200 ,0,0,0.,12.0,0.,12.0,0.,12.0,0.,12.0
1979-07-21 12:13:05.200 ,0,0,0.,12.0,0.,12.0,0.,12.0,0.,12.0
1979-07-21 12:13:17.200 ,0,0,0.,12.0,0.,12.0,0.,12.0,0.,12.0
1979-07-21 12:13:29.200 ,0,0,0.,12.0,0.,12.0,0.,12.0,0.,12.0
1979-07-21 12:13:41.200 ,1,0,0.,12.0,0.,12.0,0.,12.0,0.,12.0
1979-07-21 12:13:53.200 ,1,0,0.,12.0,1.,12.0,0.,12.0,0.,12.0
1979-07-21 12:14:05.200 ,1,0,0.,12.0,0.,12.0,0.,12.0,0.,12.0
1979-07-21 12:14:17.200 ,1,0,0.,12.0,0.,12.0,0.,12.0,0.,12.0
1979-07-21 12:14:29.200 ,2,0,0.,12.0,0.,12.0,0.,12.0,0.,12.0
1979-07-21 12:14:41.200 ,2,0,0.,12.0,0.,12.0,0.,12.0,0.,12.0
1979-07-21 12:14:53.200 ,2,0,0.,12.0,0.,12.0,0.,12.0,0.,12.0
1979-07-21 12:15:05.200 ,2,0,0.,12.0,0.,12.0,0.,12.0,0.,12.0
1979-07-21 12:15:17.200 ,3,0,0.,12.0,0.,12.0,0.,12.0,0.,12.0
1979-07-21 12:15:29.200 ,3,0,0.,12.0,0.,12.0,0.,12.0,0.,12.0
1979-07-21 12:15:41.200 ,3,0,0.,12.0,0.,12.0,0.,12.0,0.,12.0
1979-07-21 12:15:53.200 ,3,0,0.,12.0,0.,12.0,0.,12.0,0.,12.0
1979-07-21 12:16:05.200 ,4,0,0.,12.0,0.,12.0,0.,12.0,0.,12.0
1979-07-21 12:16:17.200 ,4,0,0.,12.0,0.,12.0,0.,12.0,0.,12.0
1979-07-21 12:16:29.200 ,4,0,0.,12.0,0.,12.0,0.,12.0,0.,12.0
1979-07-21 12:16:41.200 ,4,0,0.,12.0,0.,12.0,0.,12.0,0.,12.0
1979-07-21 12:16:53.200 ,5,0,0.,12.0,0.,12.0,0.,12.0,0.,12.0
1979-07-21 12:17:05.200 ,5,0,0.,12.0,0.,12.0,0.,12.0,0.,12.0
1979-07-21 12:17:17.200 ,5,0,0.,12.0,0.,12.0,0.,12.0,0.,12.0
1979-07-21 12:17:29.200 ,5,0,0.,12.0,0.,12.0,0.,12.0,0.,12.0
1979-07-21 12:17:41.200 ,6,0,0.,12.0,0.,12.0,0.,12.0,0.,12.0
1979-07-21 12:17:53.200 ,6,0,0.,12.0,0.,12.0,0.,12.0,0.,12.0
1979-07-21 12:18:05.200 ,6,0,0.,12.0,0.,12.0,0.,12.0,0.,12.0
1979-07-21 12:18:17.200 ,6,0,0.,12.0,0.,12.0,0.,12.0,0.,12.0
1979-07-21 12:18:29.200 ,7,0,0.,12.0,0.,12.0,0.,12.0,0.,12.0
1979-07-21 12:18:41.200 ,7,0,0.,12.0,0.,12.0,0.,12.0,0.,12.0
1979-07-21 12:18:53.200 ,7,0,0.,12.0,0.,12.0,0.,12.0,0.,12.0
1979-07-21 12:19:05.200 ,7,0,0.,12.0,0.,12.0,0.,12.0,0.,12.0
1979-07-21 12:19:17.200 ,3,1,0.,12.0,0.,12.0,0.,12.0,0.,12.0
1979-07-21 12:19:29.200 ,3,1,0.,12.0,0.,12.0,0.,12.0,0.,12.0
1979-07-21 12:19:41.200 ,0,1,0.,12.0,0.,12.0,0.,12.0,0.,12.0
1979-07-21 12:19:53.200 ,0,1,0.,12.0,0.,12.0,0.,12.0,0.,12.0
1979-07-21 12:20:05.200 ,4,1,0.,12.0,0.,12.0,0.,12.0,0.,12.0
1979-07-21 12:20:17.200 ,4,1,0.,12.0,0.,12.0,0.,12.0,0.,12.0
1979-07-21 12:20:29.200 ,7,1,0.,12.0,0.,12.0,0.,12.0,0.,12.0
1979-07-21 12:20:41.200 ,7,1,0.,12.0,0.,12.0,0.,12.0,0.,12.0
1979-07-21 12:20:53.200 ,3,1,0.,12.0,0.,12.0,0.,12.0,0.,12.0
1979-07-21 12:21:05.200 ,3,1,0.,12.0,0.,12.0,0.,12.0,0.,12.0
1979-07-21 12:21:17.200 ,0,1,0.,12.0,0.,12.0,0.,12.0,0.,12.0
1979-07-21 12:21:29.200 ,0,1,0.,12.0,0.,12.0,0.,12.0,0.,12.0
1979-07-21 12:21:41.200 ,4,1,0.,12.0,0.,12.0,0.,12.0,0.,12.0
1979-07-21 12:21:53.200 ,4,1,0.,12.0,0.,12.0,0.,12.0,0.,12.0
1979-07-21 12:22:05.200 ,7,1,0.,12.0,0.,12.0,0.,12.0,0.,12.0
1979-07-21 12:22:17.200 ,7,1,0.,12.0,0.,12.0,0.,12.0,0.,12.0
1979-07-21 12:22:29.200 ,3,1,0.,12.0,0.,12.0,0.,12.0,0.,12.0
1979-07-21 12:22:41.200 ,3,1,0.,12.0,0.,12.0,0.,12.0,0.,12.0
1979-07-21 12:22:53.200 ,0,1,0.,12.0,0.,12.0,0.,12.0,0.,12.0
1979-07-21 12:23:05.200 ,0,1,1.,12.0,0.,12.0,0.,12.0,0.,12.0
1979-07-21 12:23:17.200 ,4,1,0.,12.0,0.,12.0,0.,12.0,0.,12.0
1979-07-21 12:23:29.200 ,4,1,0.,12.0,0.,12.0,0.,12.0,0.,12.0
1979-07-21 12:23:41.200 ,7,1,0.,12.0,0.,12.0,0.,12.0,0.,12.0
1979-07-21 12:23:53.200 ,7,1,0.,12.0,0.,12.0,0.,12.0,0.,12.0
1979-07-21 12:24:05.200 ,3,1,0.,12.0,0.,12.0,0.,12.0,0.,12.0
1979-07-21 12:24:17.200 ,3,1,0.,12.0,0.,12.0,0.,12.0,0.,12.0
1979-07-21 12:24:29.200 ,0,1,0.,12.0,0.,12.0,0.,12.0,0.,12.0
1979-07-21 12:24:41.200 ,0,1,0.,12.0,0.,12.0,0.,12.0,0.,12.0
1979-07-21 12:24:53.200 ,4,1,0.,12.0,0.,12.0,0.,12.0,0.,12.0
1979-07-21 12:25:05.200 ,4,1,0.,12.0,0.,12.0,0.,12.0,0.,12.0
1979-07-21 12:25:17.200 ,7,1,0.,12.0,0.,12.0,0.,12.0,0.,12.0
1979-07-21 12:25:29.200 ,7,1,0.,12.0,0.,12.0,0.,12.0,0.,12.0
1979-07-21 12:25:41.200 ,3,1,0.,12.0,0.,12.0,0.,12.0,0.,12.0
1979-07-21 12:25:53.200 ,3,1,0.,12.0,0.,12.0,0.,12.0,0.,12.0
1979-07-21 12:26:05.200 ,0,1,0.,12.0,0.,12.0,0.,12.0,0.,12.0
1979-07-21 12:26:17.200 ,0,1,0.,12.0,0.,12.0,0.,12.0,0.,12.0
1979-07-21 12:26:29.200 ,4,1,0.,12.0,0.,12.0,0.,12.0,0.,12.0
1979-07-21 12:26:41.200 ,4,1,0.,12.0,0.,12.0,0.,12.0,0.,12.0
1979-07-21 12:26:53.200 ,7,1,0.,12.0,0.,12.0,0.,12.0,0.,12.0
1979-07-21 12:27:05.200 ,7,1,0.,12.0,0.,12.0,0.,12.0,0.,12.0
1979-07-21 12:27:17.200 ,3,1,0.,12.0,0.,12.0,0.,12.0,0.,12.0
1979-07-21 12:27:29.200 ,3,1,1.,12.0,0.,12.0,0.,12.0,0.,12.0
1979-07-21 12:27:41.200 ,0,1,0.,12.0,0.,12.0,0.,12.0,0.,12.0
1979-07-21 12:27:53.200 ,0,1,0.,12.0,0.,12.0,0.,12.0,0.,12.0
1979-07-21 12:28:05.200 ,4,1,0.,12.0,0.,12.0,0.,12.0,0.,12.0
1979-07-21 12:28:17.200 ,4,1,0.,12.0,0.,12.0,0.,12.0,0.,12.0
1979-07-21 12:28:29.200 ,7,1,1.,12.0,0.,12.0,0.,12.0,0.,12.0
1979-07-21 12:28:41.200 ,7,1,0.,12.0,0.,12.0,0.,12.0,0.,12.0
1979-07-21 12:28:53.200 ,3,1,0.,12.0,0.,12.0,0.,12.0,0.,12.0
1979-07-21 12:29:05.200 ,3,1,0.,12.0,0.,12.0,0.,12.0,0.,12.0
1979-07-21 12:29:17.200 ,0,1,0.,12.0,0.,12.0,0.,12.0,0.,12.0
1979-07-21 12:29:29.200 ,0,1,0.,12.0,0.,12.0,0.,12.0,0.,12.0
1979-07-21 12:29:41.200 ,0,0,0.,12.0,0.,12.0,0.,12.0,0.,12.0
1979-07-21 12:29:53.200 ,0,0,0.,12.0,0.,12.0,0.,12.0,0.,12.0
1979-07-21 12:30:05.200 ,0,0,0.,12.0,0.,12.0,0.,12.0,0.,12.0
1979-07-21 12:30:17.200 ,0,0,0.,12.0,0.,12.0,0.,12.0,0.,12.0
1979-07-21 12:30:29.200 ,5,0,0.,12.0,0.,12.0,0.,12.0,0.,12.0
1979-07-21 12:30:41.200 ,5,0,0.,12.0,0.,12.0,0.,12.0,0.,12.0
1979-07-21 12:30:53.200 ,5,0,0.,12.0,0.,12.0,0.,12.0,0.,12.0
1979-07-21 12:31:05.200 ,5,0,0.,12.0,0.,12.0,0.,12.0,0.,12.0
1979-07-21 12:31:17.200 ,4,0,0.,12.0,0.,12.0,0.,12.0,0.,12.0
1979-07-21 12:31:29.200 ,4,0,0.,12.0,0.,12.0,0.,12.0,0.,12.0
1979-07-21 12:31:41.200 ,4,0,0.,12.0,0.,12.0,0.,12.0,0.,12.0
1979-07-21 12:31:53.200 ,4,0,0.,12.0,0.,12.0,0.,12.0,0.,12.0
1979-07-21 12:32:05.200 ,3,0,0.,12.0,0.,12.0,0.,12.0,0.,12.0
1979-07-21 12:32:17.200 ,3,0,0.,12.0,0.,12.0,0.,12.0,0.,12.0
1979-07-21 12:32:29.200 ,3,0,0.,12.0,0.,12.0,0.,12.0,0.,12.0
1979-07-21 12:32:41.200 ,3,0,0.,12.0,0.,12.0,0.,12.0,0.,12.0
1979-07-21 12:32:53.200 ,2,0,0.,12.0,0.,12.0,0.,12.0,0.,12.0
1979-07-21 12:33:05.200 ,2,0,0.,12.0,0.,12.0,0.,12.0,0.,12.0
1979-07-21 12:33:17.200 ,2,0,0.,12.0,0.,12.0,0.,12.0,0.,12.0
1979-07-21 12:33:29.200 ,2,0,0.,12.0,0.,12.0,0.,12.0,0.,12.0
1979-07-21 12:33:41.200 ,1,0,0.,12.0,0.,12.0,0.,12.0,0.,12.0
1979-07-21 12:33:53.200 ,1,0,0.,12.0,0.,12.0,0.,12.0,0.,12.0
1979-07-21 12:34:05.200 ,1,0,0.,12.0,0.,12.0,0.,12.0,0.,12.0
1979-07-21 12:34:17.200 ,1,0,0.,12.0,0.,12.0,0.,12.0,0.,12.0
1979-07-21 12:34:29.200 ,0,0,0.,12.0,0.,12.0,0.,12.0,0.,12.0
1979-07-21 12:34:41.200 ,0,0,0.,12.0,0.,12.0,0.,12.0,0.,12.0
1979-07-21 12:34:53.200 ,0,0,0.,12.0,0.,12.0,0.,12.0,0.,12.0
1979-07-21 12:35:05.200 ,0,0,0.,12.0,0.,12.0,0.,12.0,0.,12.0
1979-07-21 12:35:17.200 ,0,0,0.,12.0,0.,12.0,0.,12.0,0.,12.0
1979-07-21 12:35:29.200 ,0,0,0.,12.0,0.,12.0,0.,12.0,0.,12.0
1979-07-21 12:35:41.200 ,0,0,0.,12.0,0.,12.0,0.,12.0,0.,12.0
1979-07-21 12:35:53.200 ,0,0,0.,12.0,0.,12.0,0.,12.0,0.,12.0
1979-07-21 12:36:05.200 ,1,0,0.,12.0,0.,12.0,0.,12.0,0.,12.0
1979-07-21 12:36:17.200 ,1,0,0.,12.0,0.,12.0,0.,12.0,0.,12.0
1979-07-21 12:36:29.200 ,1,0,0.,12.0,0.,12.0,0.,12.0,0.,12.0
1979-07-21 12:36:41.200 ,1,0,0.,12.0,0.,12.0,0.,12.0,0.,12.0
1979-07-21 12:36:53.200 ,2,0,1.,12.0,0.,12.0,0.,12.0,0.,12.0
1979-07-21 12:37:05.200 ,2,0,0.,12.0,0.,12.0,0.,12.0,0.,12.0
1979-07-21 12:37:17.200 ,2,0,0.,12.0,0.,12.0,0.,12.0,0.,12.0
1979-07-21 12:37:29.200 ,2,0,0.,12.0,0.,12.0,0.,12.0,0.,12.0
1979-07-21 12:37:41.200 ,3,0,0.,12.0,0.,12.0,0.,12.0,0.,12.0
1979-07-21 12:37:53.200 ,3,0,0.,12.0,0.,12.0,0.,12.0,0.,12.0
1979-07-21 12:38:05.200 ,3,0,0.,12.0,0.,12.0,0.,12.0,0.,12.0
1979-07-21 12:38:17.200 ,3,0,0.,12.0,0.,12.0,0.,12.0,0.,12.0
1979-07-21 12:38:29.200 ,4,0,0.,12.0,0.,12.0,0.,12.0,0.,12.0
1979-07-21 12:38:41.200 ,4,0,0.,12.0,0.,12.0,0.,12.0,0.,12.0
1979-07-21 12:38:53.200 ,4,0,0.,12.0,0.,12.0,0.,12.0,0.,12.0
1979-07-21 12:39:05.200 ,4,0,0.,12.0,0.,12.0,0.,12.0,0.,12.0
1979-07-21 12:39:17.200 ,5,0,0.,12.0,0.,12.0,0.,12.0,0.,12.0
1979-07-21 12:39:29.200 ,5,0,0.,12.0,0.,12.0,0.,12.0,0.,12.0
1979-07-21 12:39:41.200 ,5,0,0.,12.0,0.,12.0,0.,12.0,0.,12.0
1979-07-21 12:39:53.200 ,5,0,0.,12.0,0.,12.0,0.,12.0,0.,12.0
1979-07-21 12:40:05.200 ,6,0,0.,12.0,0.,12.0,0.,12.0,0.,12.0
1979-07-21 12:40:17.200 ,6,0,1.,12.0,0.,12.0,0.,12.0,0.,12.0
1979-07-21 12:40:29.200 ,6,0,0.,12.0,0.,12.0,0.,12.0,0.,12.0
1979-07-21 12:40:41.200 ,6,0,0.,12.0,0.,12.0,0.,12.0,0.,12.0
1979-07-21 12:40:53.200 ,7,0,0.,12.0,0.,12.0,0.,12.0,0.,12.0
1979-07-21 12:41:05.200 ,7,0,0.,12.0,0.,12.0,0.,12.0,0.,12.0
1979-07-21 12:41:17.200 ,7,0,0.,12.0,0.,12.0,0.,12.0,0.,12.0
1979-07-21 12:41:29.200 ,7,0,0.,12.0,0.,12.0,0.,12.0,0.,12.0
1979-07-21 12:41:41.200 ,7,0,0.,12.0,0.,12.0,0.,12.0,0.,12.0
1979-07-21 12:41:53.200 ,7,0,0.,12.0,0.,12.0,0.,12.0,0.,12.0
1979-07-21 12:42:05.200 ,7,0,0.,12.0,0.,12.0,0.,12.0,0.,12.0
1979-07-21 12:42:17.200 ,7,0,0.,12.0,0.,12.0,0.,12.0,0.,12.0
1979-07-21 12:42:29.200 ,6,0,0.,12.0,0.,12.0,0.,12.0,0.,12.0
1979-07-21 12:42:41.200 ,6,0,0.,12.0,0.,12.0,0.,12.0,0.,12.0
1979-07-21 12:42:53.200 ,6,0,0.,12.0,0.,12.0,0.,12.0,0.,12.0
1979-07-21 12:43:05.200 ,6,0,0.,12.0,0.,12.0,0.,12.0,0.,12.0
1979-07-21 12:43:17.200 ,5,0,0.,12.0,0.,12.0,0.,12.0,0.,12.0
1979-07-21 12:43:29.200 ,5,0,0.,12.0,0.,12.0,0.,12.0,0.,12.0
1979-07-21 12:43:41.200 ,5,0,0.,12.0,0.,12.0,0.,12.0,0.,12.0
1979-07-21 12:43:53.200 ,5,0,0.,12.0,0.,12.0,0.,12.0,0.,12.0
1979-07-21 12:44:05.200 ,4,0,0.,12.0,0.,12.0,0.,12.0,0.,12.0
1979-07-21 12:44:17.200 ,4,0,0.,12.0,0.,12.0,0.,12.0,0.,12.0
1979-07-21 12:44:29.200 ,4,0,0.,12.0,0.,12.0,0.,12.0,0.,12.0
1979-07-21 12:44:41.200 ,4,0,0.,12.0,0.,12.0,0.,12.0,0.,12.0
1979-07-21 12:44:53.200 ,3,0,0.,12.0,0.,12.0,0.,12.0,0.,12.0
1979-07-21 12:45:05.200 ,3,0,0.,12.0,0.,12.0,0.,12.0,0.,12.0
1979-07-21 12:45:17.200 ,3,0,0.,12.0,0.,12.0,0.,12.0,0.,12.0
1979-07-21 12:45:29.200 ,3,0,0.,12.0,0.,12.0,0.,12.0,0.,12.0
1979-07-21 12:45:41.200 ,2,0,0.,12.0,0.,12.0,0.,12.0,0.,12.0
1979-07-21 12:45:53.200 ,2,0,0.,12.0,0.,12.0,0.,12.0,0.,12.0
1979-07-21 12:46:05.200 ,2,0,0.,12.0,0.,12.0,0.,12.0,0.,12.0
1979-07-21 12:46:17.200 ,2,0,0.,12.0,0.,12.0,0.,12.0,0.,12.0
1979-07-21 12:46:29.200 ,1,0,0.,12.0,0.,12.0,0.,12.0,0.,12.0
1979-07-21 12:46:41.200 ,1,0,0.,12.0,0.,12.0,0.,12.0,0.,12.0
1979-07-21 12:46:53.200 ,1,0,0.,12.0,0.,12.0,0.,12.0,0.,12.0
1979-07-21 12:47:05.200 ,1,0,0.,12.0,0.,12.0,0.,12.0,0.,12.0
1979-07-21 12:47:17.200 ,0,0,0.,12.0,0.,12.0,0.,12.0,0.,12.0
1979-07-21 12:47:29.200 ,0,0,0.,12.0,0.,12.0,0.,12.0,0.,12.0
1979-07-21 12:47:41.200 ,0,0,0.,12.0,0.,12.0,0.,12.0,0.,12.0
1979-07-21 12:47:53.200 ,0,0,0.,12.0,0.,12.0,0.,12.0,0.,12.0
1979-07-21 12:48:05.200 ,0,0,0.,12.0,0.,12.0,0.,12.0,0.,12.0
1979-07-21 12:48:17.200 ,0,0,0.,12.0,0.,12.0,0.,12.0,0.,12.0
1979-07-21 12:48:29.200 ,0,0,0.,12.0,0.,12.0,0.,12.0,0.,12.0
1979-07-21 12:48:41.200 ,0,0,0.,12.0,0.,12.0,0.,12.0,0.,12.0
1979-07-21 12:48:53.200 ,1,0,0.,12.0,0.,12.0,0.,12.0,0.,12.0
1979-07-21 12:49:05.200 ,1,0,0.,12.0,0.,12.0,0.,12.0,0.,12.0
1979-07-21 12:49:17.200 ,1,0,0.,12.0,0.,12.0,0.,12.0,0.,12.0
1979-07-21 12:49:29.200 ,1,0,0.,12.0,0.,12.0,0.,12.0,0.,12.0
1979-07-21 12:49:41.200 ,2,0,0.,12.0,0.,12.0,0.,12.0,0.,12.0
1979-07-21 12:49:53.200 ,2,0,1.,12.0,0.,12.0,0.,12.0,0.,12.0
1979-07-21 12:50:05.200 ,2,0,0.,12.0,0.,12.0,0.,12.0,0.,12.0
1979-07-21 12:50:17.200 ,2,0,0.,12.0,0.,12.0,0.,12.0,0.,12.0
1979-07-21 12:50:29.200 ,3,0,0.,12.0,0.,12.0,0.,12.0,0.,12.0
1979-07-21 12:50:41.200 ,3,0,0.,12.0,0.,12.0,0.,12.0,0.,12.0
1979-07-21 12:50:53.200 ,3,0,0.,12.0,0.,12.0,0.,12.0,0.,12.0
1979-07-21 12:51:05.200 ,3,0,0.,12.0,0.,12.0,0.,12.0,0.,12.0
1979-07-21 12:51:17.200 ,4,0,0.,12.0,0.,12.0,0.,12.0,0.,12.0
1979-07-21 12:51:29.200 ,4,0,0.,12.0,0.,12.0,0.,12.0,0.,12.0
1979-07-21 12:51:41.200 ,4,0,0.,12.0,0.,12.0,0.,12.0,0.,12.0
1979-07-21 12:51:53.200 ,4,0,0.,12.0,0.,12.0,0.,12.0,0.,12.0
1979-07-21 12:52:05.200 ,5,0,0.,12.0,0.,12.0,0.,12.0,0.,12.0
1979-07-21 12:52:17.200 ,5,0,0.,12.0,0.,12.0,0.,12.0,0.,12.0
1979-07-21 12:52:29.200 ,5,0,0.,12.0,0.,12.0,0.,12.0,0.,12.0
1979-07-21 12:52:41.200 ,5,0,0.,12.0,0.,12.0,0.,12.0,0.,12.0
1979-07-21 12:52:53.200 ,6,0,0.,12.0,0.,12.0,0.,12.0,0.,12.0
1979-07-21 12:53:05.200 ,6,0,0.,12.0,0.,12.0,0.,12.0,0.,12.0
1979-07-21 12:53:17.200 ,6,0,0.,12.0,0.,12.0,0.,12.0,0.,12.0
1979-07-21 12:53:29.200 ,6,0,0.,12.0,0.,12.0,0.,12.0,0.,12.0
1979-07-21 12:53:41.200 ,7,0,0.,12.0,0.,12.0,0.,12.0,0.,12.0
1979-07-21 12:53:53.200 ,7,0,0.,12.0,0.,12.0,0.,12.0,0.,12.0
1979-07-21 12:54:05.200 ,7,0,0.,12.0,0.,12.0,0.,12.0,0.,12.0
1979-07-21 12:54:17.200 ,7,0,0.,12.0,0.,12.0,0.,12.0,0.,12.0
1979-07-21 12:54:29.200 ,7,0,0.,12.0,0.,12.0,0.,12.0,0.,12.0
1979-07-21 12:54:41.200 ,7,0,0.,12.0,0.,12.0,0.,12.0,0.,12.0
1979-07-21 12:54:53.200 ,7,0,0.,12.0,0.,12.0,0.,12.0,0.,12.0
1979-07-21 12:55:05.200 ,7,0,0.,12.0,0.,12.0,0.,12.0,0.,12.0
1979-07-21 12:55:17.200 ,6,0,0.,12.0,0.,12.0,0.,12.0,0.,12.0
1979-07-21 12:55:29.200 ,6,0,0.,12.0,0.,12.0,0.,12.0,0.,12.0
1979-07-21 12:55:41.200 ,6,0,1.,12.0,0.,12.0,0.,12.0,0.,12.0
1979-07-21 12:55:53.200 ,6,0,0.,12.0,0.,12.0,0.,12.0,0.,12.0
1979-07-21 12:56:05.200 ,5,0,0.,12.0,0.,12.0,0.,12.0,0.,12.0
1979-07-21 12:56:17.200 ,5,0,0.,12.0,0.,12.0,0.,12.0,0.,12.0
1979-07-21 12:56:29.200 ,5,0,0.,12.0,0.,12.0,0.,12.0,0.,12.0
1979-07-21 12:56:41.200 ,5,0,0.,12.0,0.,12.0,0.,12.0,0.,12.0
1979-07-21 12:56:53.200 ,4,0,0.,12.0,0.,12.0,0.,12.0,0.,12.0
1979-07-21 12:57:05.200 ,4,0,0.,12.0,0.,12.0,0.,12.0,0.,12.0
1979-07-21 12:57:17.200 ,4,0,0.,12.0,0.,12.0,0.,12.0,0.,12.0
1979-07-21 12:57:29.200 ,4,0,0.,12.0,0.,12.0,0.,12.0,0.,12.0
1979-07-21 12:57:41.200 ,3,0,0.,12.0,0.,12.0,0.,12.0,0.,12.0
1979-07-21 12:57:53.200 ,3,0,0.,12.0,0.,12.0,0.,12.0,0.,12.0
1979-07-21 12:58:05.200 ,3,0,0.,12.0,0.,12.0,0.,12.0,0.,12.0
1979-07-21 12:58:17.200 ,3,0,0.,12.0,0.,12.0,0.,12.0,0.,12.0
1979-07-21 12:58:29.200 ,2,0,0.,12.0,0.,12.0,0.,12.0,0.,12.0
1979-07-21 12:58:41.200 ,2,0,0.,12.0,0.,12.0,0.,12.0,0.,12.0
1979-07-21 12:58:53.200 ,2,0,0.,12.0,0.,12.0,0.,12.0,0.,12.0
1979-07-21 12:59:05.200 ,2,0,0.,12.0,0.,12.0,0.,12.0,0.,12.0
1979-07-21 12:59:17.200 ,1,0,0.,12.0,0.,12.0,0.,12.0,0.,12.0
1979-07-21 12:59:29.200 ,1,0,0.,12.0,0.,12.0,0.,12.0,0.,12.0
1979-07-21 12:59:41.200 ,1,0,0.,12.0,0.,12.0,0.,12.0,0.,12.0
1979-07-21 12:59:53.200 ,1,0,0.,12.0,0.,12.0,0.,12.0,0.,12.0
1979-07-21 13:00:05.200 ,0,0,0.,12.0,0.,12.0,0.,12.0,0.,12.0
1979-07-21 13:00:17.200 ,0,0,0.,12.0,0.,12.0,0.,12.0,0.,12.0
1979-07-21 13:00:29.200 ,0,0,0.,12.0,0.,12.0,0.,12.0,0.,12.0
1979-07-21 13:00:41.200 ,0,0,0.,12.0,0.,12.0,0.,12.0,0.,12.0
1979-07-21 13:00:53.200 ,0,0,0.,12.0,0.,12.0,0.,12.0,0.,12.0
1979-07-21 13:01:05.200 ,0,0,0.,12.0,0.,12.0,0.,12.0,0.,12.0
1979-07-21 13:01:17.200 ,0,0,0.,12.0,0.,12.0,0.,12.0,0.,12.0
1979-07-21 13:01:29.200 ,0,0,0.,12.0,0.,12.0,0.,12.0,0.,12.0
1979-07-21 13:01:41.200 ,1,0,0.,12.0,0.,12.0,0.,12.0,0.,12.0
1979-07-21 13:01:53.200 ,1,0,0.,12.0,0.,12.0,0.,12.0,0.,12.0
1979-07-21 13:02:05.200 ,1,0,0.,12.0,0.,12.0,0.,12.0,0.,12.0
1979-07-21 13:02:17.200 ,1,0,0.,12.0,0.,12.0,0.,12.0,0.,12.0
1979-07-21 13:02:29.200 ,2,0,0.,12.0,0.,12.0,0.,12.0,0.,12.0
1979-07-21 13:02:41.200 ,2,0,0.,12.0,0.,12.0,0.,12.0,0.,12.0
1979-07-21 13:02:53.200 ,2,0,0.,12.0,0.,12.0,0.,12.0,0.,12.0
1979-07-21 13:03:05.200 ,2,0,0.,12.0,0.,12.0,0.,12.0,0.,12.0
1979-07-21 13:03:17.200 ,3,0,0.,12.0,0.,12.0,0.,12.0,0.,12.0
1979-07-21 13:03:29.200 ,3,0,0.,12.0,0.,12.0,0.,12.0,0.,12.0
1979-07-21 13:03:41.200 ,3,0,0.,12.0,0.,12.0,0.,12.0,0.,12.0
1979-07-21 13:03:53.200 ,3,0,0.,12.0,0.,12.0,0.,12.0,0.,12.0
1979-07-21 13:04:05.200 ,4,0,0.,12.0,0.,12.0,0.,12.0,0.,12.0
1979-07-21 13:04:17.200 ,4,0,0.,12.0,0.,12.0,0.,12.0,0.,12.0
1979-07-21 13:04:29.200 ,4,0,0.,12.0,0.,12.0,0.,12.0,0.,12.0
1979-07-21 13:04:41.200 ,4,0,0.,12.0,0.,12.0,0.,12.0,0.,12.0
1979-07-21 13:04:53.200 ,5,0,0.,12.0,0.,12.0,0.,12.0,0.,12.0
1979-07-21 13:05:05.200 ,5,0,0.,12.0,0.,12.0,0.,12.0,0.,12.0
1979-07-21 13:05:17.200 ,5,0,0.,12.0,0.,12.0,0.,12.0,0.,12.0
1979-07-21 13:05:29.200 ,5,0,0.,12.0,0.,12.0,0.,12.0,0.,12.0
1979-07-21 13:05:41.200 ,6,0,0.,12.0,0.,12.0,0.,12.0,0.,12.0
1979-07-21 13:05:53.200 ,6,0,0.,12.0,0.,12.0,0.,12.0,0.,12.0
1979-07-21 13:06:05.200 ,6,0,0.,12.0,0.,12.0,0.,12.0,0.,12.0
1979-07-21 13:06:17.200 ,6,0,0.,12.0,0.,12.0,0.,12.0,0.,12.0
1979-07-21 13:06:29.200 ,7,0,0.,12.0,0.,12.0,0.,12.0,0.,12.0
1979-07-21 13:06:41.200 ,7,0,0.,12.0,0.,12.0,0.,12.0,0.,12.0
1979-07-21 13:06:53.200 ,7,0,0.,12.0,0.,12.0,0.,12.0,0.,12.0
1979-07-21 13:07:05.200 ,7,0,0.,12.0,0.,12.0,0.,12.0,0.,12.0
1979-07-21 13:07:17.200 ,3,1,0.,12.0,0.,12.0,0.,12.0,0.,12.0
1979-07-21 13:07:29.200 ,3,1,0.,12.0,0.,12.0,0.,12.0,0.,12.0
1979-07-21 13:07:41.200 ,0,1,0.,12.0,0.,12.0,0.,12.0,0.,12.0
1979-07-21 13:07:53.200 ,0,1,0.,12.0,0.,12.0,0.,12.0,0.,12.0
1979-07-21 13:08:05.200 ,4,1,0.,12.0,0.,12.0,0.,12.0,0.,12.0
1979-07-21 13:08:17.200 ,4,1,0.,12.0,0.,12.0,0.,12.0,0.,12.0
1979-07-21 13:08:29.200 ,7,1,0.,12.0,0.,12.0,0.,12.0,0.,12.0
1979-07-21 13:08:41.200 ,7,1,0.,12.0,0.,12.0,0.,12.0,0.,12.0
1979-07-21 13:08:53.200 ,3,1,0.,12.0,0.,12.0,0.,12.0,0.,12.0
1979-07-21 13:09:05.200 ,3,1,0.,12.0,0.,12.0,0.,12.0,0.,12.0
1979-07-21 13:09:17.200 ,0,1,0.,12.0,0.,12.0,0.,12.0,0.,12.0
1979-07-21 13:09:29.200 ,0,1,0.,12.0,0.,12.0,0.,12.0,0.,12.0
1979-07-21 13:09:41.200 ,4,1,0.,12.0,0.,12.0,0.,12.0,0.,12.0
1979-07-21 13:09:53.200 ,4,1,0.,12.0,0.,12.0,0.,12.0,0.,12.0
1979-07-21 13:10:05.200 ,7,1,0.,12.0,0.,12.0,0.,12.0,0.,12.0
1979-07-21 13:10:17.200 ,7,1,0.,12.0,0.,12.0,0.,12.0,0.,12.0
1979-07-21 13:10:29.200 ,3,1,0.,12.0,0.,12.0,0.,12.0,0.,12.0
1979-07-21 13:10:41.200 ,3,1,0.,12.0,0.,12.0,0.,12.0,0.,12.0
1979-07-21 13:10:53.200 ,0,1,0.,12.0,0.,12.0,0.,12.0,0.,12.0
1979-07-21 13:11:05.200 ,0,1,0.,12.0,0.,12.0,0.,12.0,0.,12.0
1979-07-21 13:11:17.200 ,4,1,0.,12.0,0.,12.0,0.,12.0,0.,12.0
1979-07-21 13:11:29.200 ,4,1,0.,12.0,0.,12.0,0.,12.0,0.,12.0
1979-07-21 13:11:41.200 ,7,1,0.,12.0,0.,12.0,0.,12.0,0.,12.0
1979-07-21 13:11:53.200 ,7,1,0.,12.0,0.,12.0,0.,12.0,0.,12.0
1979-07-21 13:12:05.200 ,3,1,0.,12.0,0.,12.0,0.,12.0,0.,12.0
1979-07-21 13:12:17.200 ,3,1,0.,12.0,0.,12.0,0.,12.0,0.,12.0
1979-07-21 13:12:29.200 ,0,1,0.,12.0,0.,12.0,0.,12.0,0.,12.0
1979-07-21 13:12:41.200 ,0,1,0.,12.0,0.,12.0,0.,12.0,0.,12.0
1979-07-21 13:12:53.200 ,4,1,0.,12.0,0.,12.0,0.,12.0,0.,12.0
1979-07-21 13:13:05.200 ,4,1,0.,12.0,0.,12.0,0.,12.0,0.,12.0
1979-07-21 13:13:17.200 ,7,1,0.,12.0,0.,12.0,0.,12.0,0.,12.0
1979-07-21 13:13:29.200 ,7,1,0.,12.0,0.,12.0,0.,12.0,0.,12.0
1979-07-21 13:13:41.200 ,3,1,0.,12.0,0.,12.0,0.,12.0,0.,12.0
1979-07-21 13:13:53.200 ,3,1,0.,12.0,0.,12.0,0.,12.0,0.,12.0
1979-07-21 13:14:05.200 ,0,1,0.,12.0,0.,12.0,0.,12.0,0.,12.0
1979-07-21 13:14:17.200 ,0,1,0.,12.0,0.,12.0,0.,12.0,0.,12.0
1979-07-21 13:14:29.200 ,4,1,0.,12.0,0.,12.0,0.,12.0,0.,12.0
1979-07-21 13:14:41.200 ,4,1,0.,12.0,0.,12.0,0.,12.0,0.,12.0
1979-07-21 13:14:53.200 ,7,1,0.,12.0,0.,12.0,0.,12.0,0.,12.0
1979-07-21 13:15:05.200 ,7,1,0.,12.0,0.,12.0,0.,12.0,0.,12.0
1979-07-21 13:15:17.200 ,3,1,0.,12.0,0.,12.0,0.,12.0,0.,12.0
1979-07-21 13:15:29.200 ,3,1,0.,12.0,0.,12.0,0.,12.0,0.,12.0
1979-07-21 13:15:41.200 ,0,1,0.,12.0,0.,12.0,0.,12.0,0.,12.0
1979-07-21 13:15:53.200 ,0,1,0.,12.0,0.,12.0,0.,12.0,0.,12.0
1979-07-21 13:16:05.200 ,4,1,0.,12.0,0.,12.0,0.,12.0,0.,12.0
1979-07-21 13:16:17.200 ,4,1,0.,12.0,0.,12.0,0.,12.0,0.,12.0
1979-07-21 13:16:29.200 ,7,1,0.,12.0,0.,12.0,0.,12.0,0.,12.0
1979-07-21 13:16:41.200 ,7,1,0.,12.0,0.,12.0,0.,12.0,0.,12.0
1979-07-21 13:16:53.200 ,3,1,0.,12.0,0.,12.0,0.,12.0,0.,12.0
1979-07-21 13:17:05.200 ,3,1,0.,12.0,0.,12.0,0.,12.0,0.,12.0
1979-07-21 13:17:17.200 ,0,1,0.,12.0,0.,12.0,0.,12.0,0.,12.0
1979-07-21 13:17:29.200 ,0,1,0.,12.0,0.,12.0,0.,12.0,0.,12.0